Regional Weather Roundup
Issued by NWS

Home | Current Version | Previous Version | Graphics & Text | Print | Product List | Glossary On
Versions: 1 2 3 4 5 6 7 8 9 10 11 12 13 14 15 16 17 18 19 20 21 22 23 24 25 26 27 28 29 30 31 32 33 34 35 36 37 38 39 40 41 42 43 44 45 46 47 48 49 50
000
ASUS45 KCYS 251110
RWRWY

WYOMING REGIONAL WEATHER ROUNDUP
NATIONAL WEATHER SERVICE CHEYENNE WY
400 AM MST SUN JAN 25 2015

NOTE:  "FAIR" INDICATES FEW OR NO CLOUDS BELOW 12,000 FEET
WITH NO SIGNIFICANT WEATHER AND/OR OBSTRUCTIONS TO VISIBILITY.

WYZ001-251200-
YELLOWSTONE NATIONAL PARK

CITY           SKY/WX    TMP DP  RH WIND       PRES   REMARKS
LK YELLOWSTONE   N/A     22  20  92 CALM      30.35F
W YELLOWSTONE  NOT AVBL

$$
WYZ002>013-054>058-071-098>099-251200-
NORTHERN WYOMING

CITY           SKY/WX    TMP DP  RH WIND       PRES   REMARKS
JACKSON        CLOUDY    25  25 100 N6        30.37F WCI  18
CODY           FAIR      45  27  49 W8        30.14R
GREYBULL       CLOUDY    21  21 100 CALM      30.17F
WORLAND        FAIR      17  15  92 S8        30.16F WCI   7
SHERIDAN       CLOUDY    35  30  82 W5        30.11S WCI  31
BUFFALO        MOCLDY    32  27  81 W5        30.11S WCI  27
GILLETTE       FAIR      31  26  82 NW6       30.09S WCI  25
HULETT           N/A    N/A N/A N/A MISG        N/A
NEWCASTLE      FAIR      30  23  74 NW16      30.08S WCI  19

$$
WYZ014>020-022>026-101>103-251200-
CENTRAL WYOMING

CITY           SKY/WX    TMP DP  RH WIND       PRES   REMARKS
BIG PINEY      FAIR      25  21  85 NW10G17   30.32F WCI  15
PINEDALE       FAIR      30  27  86 W15       30.31S WCI  19
DUBOIS         CLOUDY    36  28  75 NW16      30.26R WCI  26
LANDER         FAIR      34  21  59 VRB3      30.16R
RIVERTON       FAIR      28  22  78 SW5       30.16F WCI  23
CASPER         FAIR      32  24  72 SW15      30.14F WCI  22
DOUGLAS        FAIR      27  25  92 W7        30.13F WCI  19

$$
WYZ021-027>030-104>119-251200-
SOUTHERN WYOMING

CITY           SKY/WX    TMP DP  RH WIND       PRES   REMARKS
EVANSTON       CLOUDY    31  28  89 SW12      30.41F WCI  22
KEMMERER       PTSUNNY   32  30  93 CALM      30.40R
FORT BRIDGER   FAIR      32  30  94 W18G32    30.40R WCI  20
ROCK SPRINGS   FAIR      31  26  82 W31G38    30.29F WCI  16
DIXON          CLOUDY    29  24  82 CALM      30.36S
RAWLINS        CLOUDY    29  25  85 W17G25    30.24S WCI  17
SARATOGA       FAIR      32  27  80 W14       30.27R WCI  22
LARAMIE        FAIR      27  19  72 W10       30.16S WCI  17
CHEYENNE       FAIR      34  24  67 NW10      30.11F WCI  26
TORRINGTON     CLOUDY    33  25  72 W7        30.12S WCI  27
PINE BLUFFS    FAIR      28  27  93 N6        30.12F WCI  22

$$


USA.gov is the U.S. government's official web portal to all federal, state and local government web resources and services.